Tracking 31027 objects as of 19-Jul-2025
HD Live streaming from Space Station
objects crossing your sky now

STARLINK-4202

Track STARLINK-4202 now!
10-day predictions
STARLINK-4202 is classified as:


NORAD ID: 52848
Int'l Code: 2022-062U
Perigee: 545.9 km
Apogee: 547.8 km
Inclination: 53.2 °
Period: 95.4 minutes
Semi major axis: 6917 km
RCS: Unknown
Launch date: June 17, 2022
Source: United States (US)
Launch site: AIR FORCE EASTERN TEST RANGE (AFETR)
Your satellite tracking list
KORSAT 7
Track 1 satellite(s)




NASA's NSSDC Master Catalog

Two Line Element Set (TLE):
1 52848U 22062U   25198.51320290  .00001052  00000-0  84166-4 0  9993
2 52848  53.2190   9.8713 0001348  92.5292 267.5854 15.08848381170777
Source of the keplerian elements: AFSPC